Falfurrias, TX

6:55 PM CST on November 11, 2019 (GMT -0600)
Falfurrias

Weather History for KBKS - August, 2019

Change the Weather History Date:

Thursday, August 15, 2019

  Actual Average (WUND) Record (WUND)
Temperature  
Mean Temperature 92 °F -  
Max Temperature 106 °F - - (-1)
Min Temperature 78 °F - - (-1)
Cooling Degree Days 27    
Growing Degree Days 42 (Base 50)    
Moisture  
Dew Point 72 °F    
Average Humidity 60    
Maximum Humidity 91    
Minimum Humidity 24    
Precipitation  
Precipitation 0.00 in - - ()
Sea Level Pressure  
Sea Level Pressure 29.93 in    
Wind  
Wind Speed 6 mph ()    
Max Wind Speed 15 mph    
Max Gust Speed 22 mph    
Visibility 9.6 miles    
Events      
Averages and records for this station are not official NWS values.
T = Trace of Precipitation, MM = Missing Value Source: Averaged Metar Reports

Daily Weather History Graph

Daily Weather History Graph

Search for Another Location

Airport or City:

Astronomy

Aug. 15, 2019 Rise Set
Actual Time 7:03 AM CDT 8:10 PM CDT
Civil Twilight 6:39 AM CDT 8:34 PM CDT
Nautical Twilight 6:10 AM CDT 9:03 PM CDT
Astronomical Twilight 5:40 AM CDT 9:32 PM CDT
Moon 8:37 PM CDT (8/15) 7:03 AM CDT (8/15)
Length of Visible Light 13h 55m
Length of Day
13h 06m
Full, 100% of the Moon is Illuminated
Aug 15
Full
Aug 23
Last Quarter
Aug 30
New
Sep 5
First Quarter
Sep 13
Full

Hourly Weather History & Observations

Time (CDT) Temp. Heat Index Dew Point Humidity Pressure Visibility Wind Dir Wind Speed Gust Speed Precip Events Conditions
12:15 AM 84.4 °F 94.2 °F 77.0 °F 78% 29.96 in 10.0 mi SE 5.8 mph - N/A   Clear
12:35 AM 84.2 °F 94.1 °F 77.0 °F 79% 29.97 in 10.0 mi ESE 4.6 mph - N/A   Clear
12:55 AM 83.8 °F 93.5 °F 77.0 °F 80% 29.97 in 10.0 mi ESE 4.6 mph - N/A   Clear
1:15 AM 83.3 °F 92.4 °F 77.0 °F 81% 29.96 in 10.0 mi SE 4.6 mph - N/A   Clear
1:35 AM 83.3 °F 92.8 °F 77.2 °F 82% 29.96 in 10.0 mi SE 4.6 mph - N/A   Clear
1:55 AM 82.8 °F 91.6 °F 77.2 °F 83% 29.96 in 10.0 mi SE 6.9 mph - N/A   Clear
2:15 AM 82.6 °F 91.4 °F 77.2 °F 84% 29.95 in 10.0 mi SSE 8.1 mph - N/A   Clear
2:35 AM 82.4 °F 90.9 °F 77.0 °F 84% 29.95 in 10.0 mi SSE 10.4 mph - N/A   Clear
2:55 AM 82.0 °F 90.2 °F 77.0 °F 85% 29.94 in 10.0 mi South 8.1 mph - N/A   Clear
3:15 AM 81.9 °F 89.7 °F 77.0 °F 85% 29.93 in 10.0 mi South 6.9 mph - N/A   Clear
3:35 AM 81.5 °F 88.7 °F 76.6 °F 85% 29.94 in 10.0 mi South 6.9 mph - N/A   Clear
3:55 AM 81.0 °F 87.5 °F 76.5 °F 86% 29.93 in 10.0 mi South 6.9 mph - N/A   Clear
4:15 AM 81.0 °F 87.5 °F 76.5 °F 86% 29.94 in 10.0 mi Calm Calm - N/A   Clear
4:35 AM 80.8 °F 87.1 °F 76.3 °F 86% 29.95 in 10.0 mi South 3.5 mph - N/A   Clear
4:55 AM 80.4 °F 86.3 °F 76.3 °F 87% 29.94 in 10.0 mi South 4.6 mph - N/A   Clear
5:15 AM 80.1 °F 85.5 °F 76.3 °F 88% 29.94 in 10.0 mi SSE 4.6 mph - N/A   Clear
5:35 AM 80.2 °F 86.0 °F 76.3 °F 88% 29.95 in 10.0 mi Calm Calm - N/A   Clear
5:55 AM 79.9 °F - 75.9 °F 88% 29.96 in 10.0 mi Calm Calm - N/A   Clear
6:15 AM 79.2 °F - 75.7 °F 89% 29.96 in 7.0 mi Calm Calm - N/A   Clear
6:35 AM 78.8 °F - 75.6 °F 90% 29.97 in 7.0 mi East 3.5 mph - N/A   Clear
6:55 AM 78.4 °F - 75.4 °F 90% 29.96 in 7.0 mi East 4.6 mph - N/A   Clear
7:15 AM 78.1 °F - 75.2 °F 91% 29.97 in 7.0 mi East 4.6 mph - N/A   Clear
7:35 AM 78.4 °F - 75.6 °F 91% 29.96 in 5.0 mi ESE 4.6 mph - N/A   Clear
7:55 AM 79.3 °F - 76.3 °F 90% 29.97 in 5.0 mi East 4.6 mph - N/A   Clear
8:15 AM 80.6 °F 86.9 °F 76.8 °F 88% 29.98 in 7.0 mi East 3.5 mph - N/A   Clear
8:35 AM 82.8 °F 91.6 °F 77.0 °F 83% 29.98 in 10.0 mi ESE 3.5 mph - N/A   Clear
9:15 AM 86.5 °F 97.4 °F 76.6 °F 72% 29.98 in 10.0 mi SE 5.8 mph - N/A   Clear
9:35 AM 87.6 °F 98.2 °F 75.9 °F 68% 29.99 in 10.0 mi SSE 5.8 mph - N/A   Clear
9:55 AM 89.2 °F 99.5 °F 75.4 °F 63% 29.99 in 10.0 mi SSE 6.9 mph - N/A   Clear
10:15 AM 90.5 °F 99.7 °F 73.9 °F 58% 29.99 in 10.0 mi SSE 9.2 mph - N/A   Clear
10:35 AM 91.9 °F 100.1 °F 72.9 °F 53% 29.99 in 10.0 mi SSE 8.1 mph - N/A   Clear
10:55 AM 93.4 °F 101.5 °F 72.0 °F 50% 29.99 in 10.0 mi SE 5.8 mph - N/A   Clear
11:15 AM 93.7 °F 100.5 °F 70.7 °F 47% 29.98 in 10.0 mi South 8.1 mph - N/A   Clear
11:55 AM 96.6 °F 100.3 °F 66.4 °F 37% 29.97 in 10.0 mi Calm Calm - N/A   Clear
12:15 PM 97.7 °F 100.6 °F 65.3 °F 34% 29.96 in 10.0 mi SSW 3.5 mph - N/A   Clear
12:35 PM 97.7 °F 100.6 °F 65.3 °F 34% 29.95 in 10.0 mi SSW 5.8 mph - N/A   Clear
12:55 PM 99.5 °F 102.6 °F 65.1 °F 32% 29.94 in 10.0 mi SE 5.8 mph - N/A   Clear
1:15 PM 99.3 °F 102.3 °F 64.8 °F 32% 29.94 in 10.0 mi South 6.9 mph - N/A   Clear
1:35 PM 100.0 °F 102.4 °F 63.1 °F 30% 29.93 in 10.0 mi South 3.5 mph - N/A   Clear
1:55 PM 102.0 °F 103.9 °F 62.2 °F 27% 29.92 in 10.0 mi SE 3.5 mph - N/A   Clear
2:15 PM 101.3 °F 103.3 °F 63.0 °F 28% 29.91 in 10.0 mi NW 4.6 mph - N/A   Clear
2:35 PM 104.5 °F 107.6 °F 63.1 °F 26% 29.90 in 10.0 mi ESE 5.8 mph - N/A   Clear
2:55 PM 103.6 °F 106.7 °F 63.1 °F 27% 29.89 in 10.0 mi ESE 8.1 mph 19.6 mph N/A   Scattered Clouds
3:15 PM 105.4 °F 107.7 °F 62.1 °F 24% 29.88 in 10.0 mi ENE 8.1 mph - N/A   Scattered Clouds
3:35 PM 103.8 °F 105.7 °F 61.9 °F 25% 29.88 in 10.0 mi West 3.5 mph - N/A   Scattered Clouds
3:55 PM 103.6 °F 106.0 °F 63.0 °F 26% 29.87 in 10.0 mi ESE 10.4 mph 16.1 mph N/A   Scattered Clouds
4:15 PM 105.4 °F 108.4 °F 63.0 °F 25% 29.86 in 10.0 mi ENE 6.9 mph - N/A   Scattered Clouds
4:35 PM 106.0 °F 109.3 °F 63.3 °F 25% 29.85 in 10.0 mi SE 5.8 mph - N/A   Scattered Clouds
4:55 PM 103.1 °F 107.2 °F 64.9 °F 29% 29.85 in 10.0 mi East 8.1 mph - N/A   Scattered Clouds
5:15 PM 103.8 °F 107.8 °F 64.9 °F 28% 29.85 in 10.0 mi NE 6.9 mph - N/A   Clear
5:35 PM 105.1 °F 109.3 °F 64.8 °F 27% 29.84 in 10.0 mi East 9.2 mph - N/A   Scattered Clouds
5:55 PM 101.8 °F 107.7 °F 68.2 °F 33% 29.84 in 10.0 mi ESE 15.0 mph 19.6 mph N/A   Scattered Clouds
6:15 PM 100.8 °F 108.6 °F 70.0 °F 37% 29.85 in 10.0 mi ESE 15.0 mph 21.9 mph N/A   Clear
6:35 PM 99.1 °F 106.6 °F 70.2 °F 39% 29.85 in 10.0 mi ESE 13.8 mph 19.6 mph N/A   Clear
6:55 PM 98.4 °F 105.8 °F 70.0 °F 40% 29.85 in 10.0 mi ESE 11.5 mph 18.4 mph N/A   Clear
7:35 PM 95.2 °F 101.0 °F 69.3 °F 43% 29.86 in 10.0 mi ESE 12.7 mph 18.4 mph N/A   Clear
7:55 PM 93.0 °F 99.0 °F 69.8 °F 47% 29.86 in 10.0 mi ESE 12.7 mph 18.4 mph N/A   Clear
8:15 PM 91.8 °F 97.0 °F 69.8 °F 48% 29.87 in 10.0 mi ESE 9.2 mph - N/A   Clear
8:35 PM 90.9 °F 96.2 °F 69.8 °F 50% 29.87 in 10.0 mi ESE 10.4 mph 18.4 mph N/A   Clear
8:55 PM 89.6 °F 96.2 °F 71.6 °F 55% 29.87 in 10.0 mi SE 8.1 mph - N/A   Clear
9:15 PM 88.7 °F 95.7 °F 72.1 °F 58% 29.88 in 10.0 mi SE 10.4 mph 16.1 mph N/A   Clear
9:35 PM 88.0 °F 95.6 °F 73.0 °F 61% 29.89 in 10.0 mi SE 9.2 mph - N/A   Clear
9:55 PM 87.4 °F 95.3 °F 73.6 °F 63% 29.90 in 10.0 mi SE 9.2 mph 16.1 mph N/A   Clear
10:15 PM 86.9 °F 95.0 °F 73.9 °F 65% 29.91 in 10.0 mi SE 9.2 mph - N/A   Clear
10:35 PM 86.4 °F 94.6 °F 74.3 °F 67% 29.92 in 10.0 mi SE 10.4 mph - N/A   Clear
10:55 PM 86.0 °F 94.6 °F 74.7 °F 69% 29.93 in 10.0 mi SE 6.9 mph - N/A   Clear
11:15 PM 85.6 °F 94.6 °F 75.2 °F 71% 29.94 in 10.0 mi SSE 8.1 mph - N/A   Clear
11:35 PM 85.3 °F 94.6 °F 75.6 °F 73% 29.94 in 10.0 mi SSE 8.1 mph - N/A   Clear
11:55 PM 85.1 °F 94.5 °F 76.1 °F 74% 29.94 in 10.0 mi SSE 10.4 mph - N/A   Clear